CAPE
0 0 0 0 0 0 0 2 15 6 0 3 13 6 0 0 0 0 0 0 0 0 0 0 1 3 5 10 16 19 24 39 50 61 68 58 86 74
0 0 0 0 0 0 4 3 16 15 10 4 3 2 0 0 0 0 0 0 0 0 0 0 0 2 6 12 15 15 16 22 33 44 48 68 58 72
0 0 0 0 0 0 0 3 15 23 27 8 0 0 0 0 0 0 0 0 0 0 0 0 0 2 6 4 3 5 8 12 21 34 46 59 65 79
0 0 0 0 0 1 3 4 8 10 6 1 0 0 0 0 0 0 0 0 0 0 0 0 1 1 1 2 3 5 8 14 17 22 34 50 49 55
0 0 0 0 0 5 1 0 0 0 0 0 0 0 0 0 0 0 0 0 0 0 0 0 0 0 0 0 1 1 1 4 8 9 13 19 19 24
0 0 0 0 0 9 1 0 0 0 0 0 0 0 0 0 0 0 0 0 0 0 0 0 0 0 0 0 0 0 0 2 5 9 13 29 27 11
0 0 0 0 0 2 0 0 0 0 0 0 1 1 1 0 0 0 0 0 0 0 2 9 1 3 2 0 0 0 0 2 5 9 14 23 36 32
0 0 0 0 0 0 0 0 0 0 0 2 3 3 1 0 0 0 0 1 0 0 5 5 1 3 3 2 0 0 1 3 6 7 5 15 35 33
0 0 0 0 0 0 0 0 0 0 0 1 4 3 5 0 0 0 3 5 5 1 2 7 3 4 7 0 0 0 0 0 1 2 2 34 41 27
0 0 0 0 0 0 0 0 0 0 0 0 0 0 0 0 0 5 11 12 6 5 2 9 4 12 8 1 0 0 0 0 0 3 16 17 14 4
0 0 0 0 0 0 1 1 0 0 0 0 0 0 0 0 1 11 13 12 13 6 2 14 11 9 8 6 4 0 0 0 0 0 0 0 3 0
0 0 0 0 0 0 1 2 1 0 0 0 0 0 0 0 0 2 8 14 16 9 1 9 10 13 12 5 22 16 10 2 0 1 0 0 0 31
0 0 0 0 0 0 0 9 5 0 0 0 0 0 0 0 3 5 5 9 16 10 4 13 12 13 17 15 12 15 17 17 21 27 9 3 0 9
0 0 0 0 0 0 0 1 0 0 2 4 7 2 1 4 5 6 3 4 8 5 6 11 17 13 21 20 15 10 13 18 52 23 15 18 6 7
3 0 0 0 0 0 0 0 0 6 10 12 11 5 4 5 4 1 0 2 4 3 0 5 11 10 14 15 17 15 11 15 61 38 54 27 31 29
1 6 2 0 0 2 1 5 10 16 15 10 9 6 6 4 3 6 7 10 11 6 1 2 4 7 10 6 7 8 15 42 36 21 21 21 15 41
27 15 23 4 7 8 7 9 9 13 12 12 11 12 8 4 8 7 5 9 9 7 4 4 2 2 4 6 14 12 32 22 10 11 10 21 32 29
30 32 45 31 7 7 7 4 5 10 8 9 10 9 10 7 13 10 4 9 8 7 5 5 7 3 8 4 1 9 17 14 13 14 17 26 19 15
43 36 60 72 11 3 5 1 3 11 10 8 9 8 10 6 7 14 12 9 8 7 4 5 6 4 13 15 4 0 18 11 22 18 16 23 21 15
35 80 76 92 37 6 3 5 3 9 9 8 9 9 11 9 16 11 11 10 10 4 2 2 2 0 7 14 13 5 0 15 6 7 9 8 12 0
10 43 52 47 10 4 6 7 6 13 12 10 8 7 7 5 16 12 10 0 0 3 1 1 0 0 0 4 13 15 19 0 7 11 6 9 10 17
8 8 3 23 12 12 15 7 13 14 9 10 9 8 6 6 11 6 8 13 6 6 2 1 0 0 2 6 13 10 10 10 0 0 0 5 9 12
7 5 7 9 12 30 21 15 9 12 10 8 8 5 5 2 4 9 11 4 5 3 2 1 0 0 0 0 2 12 5 6 7 7 6 0 1 1
CIN
-0 -0 -0 -0 -0 -0 -0 -0 -0 -0 -0 -0 -0 -0 -0 -0 -0 -0 -0 -0 -0 -0 -0 -0 -0 -0 -0 -0 -0 -0 -0 -0 -0 -0 -0 -0 -0 -0
-0 -0 -0 -0 -0 -0 -4 -0 -0 -0 -0 -0 -0 -0 -0 -0 -0 -0 -0 -0 -0 -0 -0 -0 -0 -0 -0 -0 -0 -0 -0 -0 -0 -0 -0 -0 -0 -0
-0 -0 -0 -0 -0 -0 -2 -0 -0 -0 -0 -0 -0 -0 -0 -0 -0 -0 -0 -0 -0 -0 -0 -0 -0 -0 -0 -0 -0 -0 -0 -0 -0 -0 -0 -0 -0 -0
-0 -0 -0 -0 -0 -14 -4 -0 -0 -0 -0 -0 -0 -0 -0 -0 -0 -0 -0 -0 -0 -0 -0 -0 -0 -0 -0 -0 -0 -0 -0 -0 -0 -0 -0 -0 -0 -0
-0 -0 -0 -0 -0 -10 -10 -0 -0 -0 -0 -0 -0 -0 -0 -0 -0 -0 -0 -0 -0 -0 -0 -0 -0 -0 -0 -0 -0 -0 -0 -0 -0 -0 -0 -0 -0 -0
-0 -0 -0 -0 -0 -8 -7 -0 -0 -0 -0 -0 -0 -0 -0 -0 -0 -0 -0 -0 -0 -0 -0 -0 -0 -0 -0 -0 -0 -0 -0 -0 -0 -0 -0 -0 -0 -0
-0 -0 -0 -0 -0 -3 -0 -0 -0 -0 -0 -0 -0 -0 -0 -0 -0 -0 -0 -0 -0 -0 -0 -0 -0 -0 -0 -0 -0 -0 -0 -0 -0 -0 -0 -0 -0 -0
-0 -0 -0 -0 -0 -0 -0 -0 -0 -0 -0 -0 -0 -0 -0 -0 -0 -0 -0 -0 -0 -0 -0 -0 -0 -0 -0 -0 -0 -0 -0 -0 -0 -0 -0 -0 -0 -0
-0 -0 -0 -0 -0 -0 -0 -0 -0 -0 -0 -0 -0 -0 -0 -0 -0 -0 -0 -0 -0 -0 -0 -0 -0 -0 -0 -0 -0 -0 -0 -0 -0 -0 -0 -0 -1 -2
-0 -0 -0 -0 -0 -0 -0 -0 -0 -0 -0 -0 -0 -0 -0 -0 -0 -0 -0 -0 -0 -0 -0 -0 -0 -0 -0 -0 -0 -0 -0 -0 -0 -2 -0 -0 -0 -0
-0 -0 -0 -0 -0 -0 -0 -0 -0 -0 -0 -0 -0 -0 -0 -0 -0 -0 -0 -0 -0 -0 -0 -0 -0 -0 -0 -0 -0 -0 -0 -0 -0 -0 -0 -0 -0 -0
-0 -0 -0 -0 -0 -0 -0 -0 -0 -0 -0 -0 -0 -0 -0 -0 -0 -0 -0 -0 -0 -0 -0 -0 -0 -0 -0 -0 -0 -0 -0 -0 -0 -0 -0 -0 -0 -0
-0 -0 -0 -0 -0 -0 -0 -0 -0 -0 -0 -0 -0 -0 -0 -0 -0 -0 -0 -0 -0 -0 -0 -0 -0 -0 -0 -0 -0 -0 -0 -0 -0 -0 -0 -0 -0 -0
-0 -0 -0 -0 -0 -0 -0 -0 -0 -0 -0 -0 -0 -0 -0 -0 -0 -0 -0 -0 -0 -0 -0 -0 -0 -0 -0 -0 -0 -0 -0 -0 -0 -0 -0 -0 -0 -0
-0 -0 -0 -0 -0 -0 -0 -0 -0 -0 -0 -0 -0 -0 -0 -0 -0 -0 -0 -0 -0 -0 -0 -0 -0 -0 -0 -0 -0 -0 -0 -0 -0 -0 -0 -0 -0 -0
-0 -0 -0 -0 -0 -0 -0 -0 -0 -0 -0 -0 -0 -0 -0 -0 -0 -0 -0 -0 -0 -0 -0 -0 -0 -0 -0 -0 -0 -0 -0 -0 -0 -0 -0 -0 -0 -0
-4 -0 -0 -0 -0 -0 -0 -0 -0 -0 -0 -0 -0 -0 -0 -0 -0 -0 -0 -0 -0 -0 -0 -0 -0 -0 -0 -0 -0 -0 -0 -0 -0 -0 -0 -0 -0 -0
-0 -0 -0 -0 -0 -0 -0 -0 -0 -0 -0 -0 -0 -0 -0 -0 -0 -0 -0 -0 -0 -0 -0 -0 -0 -0 -0 -0 -0 -0 -0 -0 -0 -0 -0 -0 -0 -0
-0 -0 -0 -0 -0 -0 -0 -0 -0 -0 -0 -0 -0 -0 -0 -0 -0 -0 -0 -0 -0 -0 -0 -0 -0 -0 -0 -0 -0 -0 -0 -0 -0 -0 -0 -0 -0 -0
-0 -0 -0 -0 -2 -0 -0 -0 -0 -0 -0 -0 -0 -0 -0 -0 -0 -0 -0 -0 -0 -0 -0 -0 -0 -0 -0 -0 -0 -0 -0 -0 -0 -0 -0 -0 -0 -0
-0 -0 -0 -1 -0 -0 -0 -0 -0 -0 -0 -0 -0 -0 -0 -0 -0 -0 -0 -0 -0 -0 -0 -0 -0 -0 -0 -0 -0 -0 -0 -0 -0 -0 -0 -0 -0 -0
-0 -0 -0 -0 -0 -0 -0 -0 -0 -0 -0 -0 -0 -0 -0 -0 -0 -0 -0 -0 -0 -0 -0 -0 -0 -0 -0 -0 -0 -0 -0 -0 -0 -0 -0 -0 -0 -0
-0 -0 -0 -0 -0 -0 -0 -0 -0 -0 -0 -0 -0 -0 -0 -0 -0 -0 -0 -0 -0 -0 -0 -0 -0 -0 -0 -0 -0 -0 -0 -0 -0 -0 -0 -0 -0 -0
Wind_Speed
6 7 5 4 4 4 5 5 5 6 9 4 6 5 4 4 7 10 11 15 18 19 19 20 20 20 21 22 22 24 24 25 25 23 24 23 24 23
5 7 6 5 6 5 5 5 6 7 10 6 6 6 5 6 8 10 12 17 17 17 18 18 20 21 22 22 23 24 25 25 25 24 25 25 23 23
7 7 9 9 6 6 6 6 7 7 10 10 5 6 7 9 9 9 10 11 10 15 17 20 22 22 22 22 22 22 23 24 25 25 25 26 24 23
9 10 12 7 10 9 7 10 9 9 9 14 10 7 8 9 10 11 9 9 10 14 18 21 21 20 19 19 19 21 22 22 22 23 24 24 23 25
10 11 12 10 11 8 9 8 8 7 8 9 10 6 7 7 9 9 9 10 8 15 18 17 15 17 17 19 20 21 22 22 22 22 22 23 24 24
11 12 13 12 13 11 10 10 8 8 8 8 9 9 8 7 7 8 8 8 9 10 11 9 15 18 19 19 19 21 20 20 20 20 20 19 19 21
12 12 12 13 12 9 7 9 9 8 8 9 9 8 8 8 9 7 9 9 9 8 8 8 11 11 11 13 14 17 17 19 20 20 20 20 19 20
12 10 11 10 12 12 14 12 10 10 11 9 9 10 11 9 7 7 8 8 9 6 10 11 10 10 10 9 15 20 21 21 21 20 20 20 20 18
10 9 8 8 9 9 10 10 13 15 10 10 12 11 10 9 8 9 9 9 10 10 12 12 10 10 9 10 18 21 18 17 17 18 18 17 14 16
9 10 11 10 10 10 10 8 13 12 12 9 11 11 10 9 8 9 10 11 10 9 10 11 9 10 10 12 19 15 13 17 18 16 16 16 16 17
9 9 10 11 12 16 9 12 12 12 10 15 14 14 13 14 13 8 8 9 10 10 9 6 8 12 11 11 8 10 20 18 19 17 18 18 17 19
10 10 12 15 11 15 12 12 12 13 10 11 10 12 13 12 12 11 8 8 9 8 2 7 9 9 7 7 7 11 10 16 18 19 19 19 19 11
9 9 9 14 19 18 18 12 13 10 9 9 9 8 8 9 8 8 8 7 8 10 8 8 8 10 9 13 11 11 11 11 12 12 14 15 16 17
11 10 10 14 18 19 16 17 19 11 8 8 8 8 8 8 8 7 8 7 8 11 11 11 9 10 11 12 14 11 12 11 9 8 9 14 18 19
10 14 16 16 17 14 20 19 16 10 9 10 10 9 8 8 7 6 7 8 9 11 9 10 9 10 9 11 12 13 13 11 9 8 10 11 12 11
11 11 11 12 11 10 8 12 10 10 10 10 10 9 7 6 7 6 6 5 7 7 7 8 9 10 10 10 11 12 10 9 10 10 10 10 9 8
12 10 9 9 8 9 8 9 9 10 11 10 10 9 8 7 7 5 5 5 7 7 7 6 7 10 10 13 10 9 8 8 9 10 11 9 8 9
12 11 11 10 9 9 9 9 9 11 10 10 10 9 9 8 8 6 5 6 7 6 7 6 7 8 6 4 11 7 7 7 9 9 9 8 6 8
11 11 11 10 9 9 8 9 9 9 9 9 9 9 9 8 7 7 6 5 6 6 6 5 5 6 7 7 3 5 7 8 8 8 7 8 6 7
11 10 11 10 10 9 8 8 8 8 8 9 9 9 9 8 8 7 7 6 6 5 5 5 4 5 6 6 6 6 7 7 6 8 8 6 4 6
14 14 11 9 6 6 7 7 8 9 8 8 9 8 8 8 9 8 7 6 5 5 6 5 4 8 7 6 5 5 1 1 5 7 9 6 6 6
12 14 13 10 6 6 5 6 8 8 8 8 8 8 8 8 9 9 7 7 6 6 5 4 5 5 5 4 5 6 4 3 3 3 9 10 5 6
12 13 12 13 13 7 5 6 7 7 7 8 8 8 8 8 8 8 7 7 6 5 5 4 4 4 4 4 5 5 5 5 3 2 3 7 8 8
Wind_Direction
205 202 214 211 222 235 241 259 288 297 304 298 279 217 246 279 324 316 311 312 308 304 305 302 300 300 296 294 295 294 291 292 294 291 288 291 282 285
211 212 217 222 227 232 239 247 239 255 283 297 280 283 270 289 303 301 305 304 297 298 299 299 295 292 295 295 294 293 293 291 289 290 289 287 284 283
222 224 229 224 236 235 233 241 245 241 263 285 274 287 268 287 296 302 300 296 293 293 298 295 292 292 295 292 288 288 289 286 283 284 283 283 282 280
235 228 235 223 230 236 236 242 247 255 264 279 288 278 273 297 298 298 298 294 295 299 294 293 296 296 291 291 291 290 289 286 283 278 275 279 284 284
246 237 239 227 231 231 234 243 250 252 251 263 277 278 282 290 296 294 294 292 291 296 290 293 295 292 293 294 291 290 287 284 280 278 276 275 274 276
253 247 238 228 230 234 236 242 253 253 253 257 270 278 281 295 292 294 299 302 306 302 296 287 290 292 291 291 288 283 283 283 281 280 276 272 268 268
265 247 236 231 230 236 239 248 248 249 254 262 269 274 278 291 296 307 294 307 307 299 300 307 304 301 295 291 281 278 290 288 282 278 274 273 269 265
265 254 243 219 220 219 220 230 246 245 251 260 268 273 282 295 291 290 297 310 311 302 309 304 300 299 295 290 297 296 294 291 285 278 276 279 279 273
270 267 253 232 224 237 232 236 232 224 237 252 256 266 281 284 283 285 288 298 301 308 304 302 305 295 295 295 296 301 296 294 288 277 275 277 283 278
271 263 254 242 223 220 230 243 247 232 223 224 244 261 272 271 266 279 294 293 290 293 297 297 309 302 307 299 295 298 298 313 308 289 275 288 282 279
260 252 245 245 230 204 222 236 242 240 228 236 243 255 256 249 257 286 281 297 300 305 303 292 304 310 306 293 287 318 319 311 311 302 291 283 284 280
260 255 234 246 232 216 224 227 232 242 233 230 229 239 238 240 245 253 275 285 298 309 318 311 315 322 307 302 314 307 310 309 304 301 296 290 286 279
261 260 250 232 232 222 215 226 231 240 225 235 241 242 238 240 245 242 253 268 284 280 298 305 302 301 282 299 301 302 299 309 309 304 300 286 284 279
255 259 257 233 233 232 222 226 229 218 225 223 230 237 239 242 248 249 253 260 272 277 290 285 285 286 290 293 301 306 308 307 301 309 305 300 290 282
260 256 250 239 237 236 229 224 222 211 217 223 229 235 237 245 257 251 248 263 276 280 278 285 283 283 280 284 292 298 308 312 307 311 307 308 302 300
266 263 251 252 250 250 242 233 225 215 210 217 229 234 239 232 234 236 247 271 280 286 285 282 288 286 283 280 285 288 296 297 320 313 314 301 301 309
278 276 253 233 234 238 235 231 233 217 216 215 223 226 228 231 232 225 234 264 269 288 296 298 297 291 279 277 276 278 292 310 313 308 312 316 319 340
293 273 260 242 223 234 238 238 232 229 221 216 216 224 226 227 230 218 226 250 270 285 295 306 312 316 305 260 233 282 302 317 319 314 315 326 330 356
275 270 265 239 223 224 229 239 244 238 229 219 211 216 218 223 212 223 223 244 261 277 288 298 307 313 321 325 309 240 307 322 322 330 334 342 331 354
299 286 278 254 225 214 215 225 236 247 221 219 215 212 209 214 212 215 219 237 253 273 282 284 292 306 304 312 320 306 303 300 337 336 343 327 318 251
344 324 301 269 204 214 220 228 235 241 224 218 209 205 203 204 211 213 215 219 234 259 271 283 311 308 278 270 243 277 292 231 342 351 344 337 345 359
341 344 336 310 230 230 225 231 242 235 227 220 210 199 197 199 209 206 207 217 217 243 263 284 298 302 287 281 307 318 319 334 238 330 23 18 356 6
339 336 338 337 346 321 259 255 244 240 235 220 206 197 193 195 207 208 207 207 222 227 246 269 293 291 290 287 302 313 321 321 317 333 40 21 29 40